SL-16 DEB, 23302

Orbit data source: Space-Track

SL-16 DEB, 23302 is space debris in LEO originally from a launch on Fri, 25 Dec 1992 UTC launched from the Tyuratam Missile And Space Complex (TTMTR). Debris objects in space refer to the collection of defunct objects orbiting the Earth. Examples of debris include non-operational satellites, rocket bodies, and fragments generated from explosions, collisions, or faulty payload assembly.

Loading next visibility...
Identifier
23302, 1992-093JH
Orbit
LEO
Country
Flag of CISCIS
Related business
Manufacturer
Unknown
Mission
Spacecraft
Bus & Motor
Unknown
Mass
Unknown
Launch date (UTC)
1992-12-25 (33 years ago)
Launch vehicle
Unknown
Launch site
Tyuratam Missile And Space Complex (TTMTR)
Object type
Payload
Rocket body
Debris
Shape & HBR
Unknown shape, 0.1 m
Radar Cross Section
Small (<0.1 m²)

Expand to show TLE details & history
Last TLE update: 18 hours ago

TLE from 18 hours ago
0 SL-16 DEB
1 23302U 92093JH  26132.66792488  .00001058  00000-0  54876-3 0  9994
2 23302  71.1309 221.4946 0113215 357.6262 151.5335 14.13813369649196
Epoch: 2026-05-12T16:01Z
TLE epoch observation values (Epoch: 2026-05-12T16:01:48.709Z)
Latitude
28.50428°
Longitude
-80.03706°
Altitude
921.482 km
Speed
7.357 km/s
True Right ascension
02h 03m 25s
True Declination
28° 21' 49"
Sunlit
Object was in daylight at epoch
Visualization orbit readout
Latitude
Unknown
Longitude
Unknown
Altitude
Unknown
Speed
Unknown
Apparent Right ascension
Unknown
Apparent Declination
Unknown
Sunlit
N/A
Visualization observer readout
Local Sidereal Time
18:40:17
Azimuth
Unknown
Elevation
Unknown
Doppler factor
Unknown
Orbital elements
Apogee altitude
926.033 km
Perigee altitude
762.496 km
Semi-major axis
7,222.402 km
Eccentricity
0.01132
Inclination
71.1309°
RAAN
221.4946°
Arg. of periapsis
357.6262°
True anomaly
152.14426°
Mean anomaly
151.5335°
Eccentric anomaly
151.83964°
Mean motion
3.53607 °/min
Orbital period
101.81 mins
BSTAR
0.00054876
Loading maneuver chart data...
Computing Atmospheric mass density...
Loading historical data...
Loading historical data...
Loading historical data...
Loading historical data...
Loading historical data...
Loading historical data...
Loading historical data...

Documentation

Showing up to 5 results
|